Lamoni, IA

6:37 AM CST on February 28, 2017 (GMT -0600)
Lamoni Municipal

Weather History for KLWD - April, 2014

Change the Weather History Date:

Thursday, April 17, 2014

  Actual Average Record
Temperature  
Mean Temperature 44 °F 52 °F  
Max Temperature 55 °F 63 °F 85 °F (1975)
Min Temperature 33 °F 42 °F 26 °F (1983)
Degree Days  
Heating Degree Days 21 13  
Month to date heating degree days 305 263  
Since 1 July heating degree days 6510 5752  
Cooling Degree Days 0 0  
Month to date cooling degree days 3 0  
Year to date cooling degree days 3 1  
Moisture  
Dew Point 30 °F    
Average Humidity 62    
Maximum Humidity 85    
Minimum Humidity 38    
Precipitation  
Precipitation 0.00 in 0.14 in 3.99 in (1976)
Month to date precipitation 2.36 1.76  
Sea Level Pressure  
Sea Level Pressure 30.23 in    
Wind  
Wind Speed 9 mph (NW)    
Max Wind Speed 20 mph    
Max Gust Speed 24 mph    
Visibility 10 miles    
Events      
T = Trace of Precipitation, MM = Missing Value Source: NWS Daily Summary

Daily Weather History Graph

Daily Weather History Graph

Search for Another Location

Airport or City:

Trip Planner

Search our weather history database for the weather conditions in past years. The results will help you decide how hot, cold, wet, or windy it might be!

Date:

Astronomy

Apr. 17, 2014 Rise Set
Actual Time 6:33 AM CDT 7:57 PM CDT
Civil Twilight 6:05 AM CDT 8:25 PM CDT
Nautical Twilight 5:31 AM CDT 8:59 PM CDT
Astronomical Twilight 4:55 AM CDT 9:36 PM CDT
Moon 10:44 PM CDT (4/17) 8:05 AM CDT (4/17)
Length of Visible Light 14h 20m
Length of Day
13h 23m
Waning Gibbous, 93% of the Moon is Illuminated
Apr 17
Waning Gibbous
Apr 22
Last Quarter
Apr 29
New
May 6
First Quarter
May 14
Full

Hourly Weather History & Observations

Time (CDT) Temp. Windchill Dew Point Humidity Pressure Visibility Wind Dir Wind Speed Gust Speed Precip Events Conditions
12:31 AM 39.0 °F 29.6 °F 34.0 °F 82% 30.04 in - WNW 18.4 mph - N/A   Overcast
12:53 AM 39.9 °F 32.1 °F 33.1 °F 77% 30.06 in - WNW 13.8 mph - N/A   Overcast
1:53 AM 37.9 °F 30.0 °F 33.1 °F 83% 30.10 in - WNW 12.7 mph - N/A   Overcast
2:53 AM 37.0 °F 28.5 °F 30.9 °F 79% 30.11 in - WNW 13.8 mph - N/A   Overcast
3:53 AM 36.0 °F 27.1 °F 30.0 °F 79% 30.13 in - NW 13.8 mph - N/A   Overcast
4:53 AM 36.0 °F 27.5 °F 28.9 °F 76% 30.16 in - NW 12.7 mph - N/A   Overcast
5:22 AM 35.1 °F 25.5 °F 28.9 °F 78% 30.15 in - NW 15.0 mph - N/A   Overcast
5:53 AM 35.1 °F 25.2 °F 28.9 °F 78% 30.19 in - NW 16.1 mph - N/A   Overcast
6:53 AM 34.0 °F 25.0 °F 28.0 °F 79% 30.21 in - NNW 12.7 mph - N/A   Overcast
7:53 AM 33.1 °F 23.4 °F 27.0 °F 78% 30.25 in - North 13.8 mph 21.9 mph N/A   Overcast
8:53 AM 34.0 °F 25.5 °F 28.0 °F 79% 30.30 in - NW 11.5 mph - N/A   Overcast
9:53 AM 35.1 °F 27.4 °F 28.0 °F 76% 30.31 in - NW 10.4 mph - N/A   Overcast
10:17 AM 36.0 °F 28.0 °F 28.0 °F 73% 30.29 in - NW 11.5 mph - N/A   Overcast
11:28 AM 39.9 °F 31.4 °F 28.9 °F 65% 30.29 in - NNW 16.1 mph 23.0 mph N/A   Scattered Clouds
12:53 PM 46.0 °F 41.9 °F 30.0 °F 54% 30.30 in - NW 8.1 mph - N/A   Clear
1:53 PM 48.0 °F - 30.9 °F 52% 30.29 in - NNE 9.2 mph - N/A   Clear
2:53 PM 51.1 °F - 30.9 °F 46% 30.29 in - NW 6.9 mph - N/A   Clear
3:53 PM 53.1 °F - 30.9 °F 43% 30.26 in 10.0 mi NW 5.8 mph - N/A   Clear
4:53 PM 55.0 °F - 30.9 °F 40% 30.26 in 10.0 mi North 6.9 mph - N/A   Clear
5:53 PM 54.0 °F - 30.9 °F 41% 30.26 in 10.0 mi Calm Calm - N/A   Clear
6:53 PM 53.1 °F - 30.0 °F 41% 30.27 in 10.0 mi East 3.5 mph - N/A   Clear
7:53 PM 51.1 °F - 30.0 °F 44% 30.28 in 10.0 mi Calm Calm - N/A   Clear
8:53 PM 48.9 °F - 30.9 °F 50% 30.29 in 10.0 mi Calm Calm - N/A   Clear
9:53 PM 46.9 °F - 30.0 °F 52% 30.30 in 10.0 mi ENE 3.5 mph - N/A   Clear
10:53 PM 44.1 °F 41.5 °F 30.9 °F 60% 30.30 in 10.0 mi East 4.6 mph - N/A   Clear
11:53 PM 43.0 °F 39.5 °F 30.9 °F 62% 30.29 in 10.0 mi South 5.8 mph - N/A   Clear